Location: Rometta
(44.2000°N, 10.0500°E)
Time: 12:18:25
(UTC+00:00)

Cosmos 1703 - Pass Details

Date: 20 January 2021
Orbit: 524 x 538 km, 82.5° (Epoch: 07 March)

Event Time Altitude Azimuth Distance (km) Brightness Sun altitude
Rises 17:25:06 0° 155° (SSE) 2,653 6.7 -12.8°
Reaches altitude 10° 17:27:35 10° 140° (SE) 1,767 5.7 -13.2°
Enters shadow 17:30:25 22° 93° (E) 1,197 4.5 -13.7°
